#timestamp,LO_Frequency,Hit,StdDev 
1568386815.6,286047002.0,N
1568386835.5,286047003.3,N
1568386855.3,286047003.5,N
1568386875.1,286047001.8,N
1568386895.9,286047000.5,N
1568386915.7,286046999.8,N
1568386935.5,286046999.8,N
1568386955.4,286047000.4,N
1568386975.2,286047002.6,N
1568386995.1,286047000.9,N
1568386996.0,286047000.9,N
1568387015.8,286046999.8,N
1568387035.6,286047000.6,N
1568387055.5,286047001.0,N
1568387075.3,286047001.1,N
1568387095.2,286047000.8,N
1568387115.9,286047001.1,N
1568387135.7,286047002.6,N
1568387155.6,286047002.2,N
1568387175.4,286047002.4,N
1568387195.2,286047002.0,N
1568387215.1,286047001.5,N
1568387216.0,286047001.5,N
1568387235.8,286047002.7,N
1568387255.7,286047001.4,N
1568387275.5,286047003.4,Y
1568387295.3,286047002.8,P
1568387315.2,286047002.7,P
1568387335.0,286046999.8,N
1568387335.9,286046999.8,N
1568387355.7,286047000.0,N
1568387375.6,286047000.3,N
1568387395.4,286047001.1,N
1568387415.3,286046999.3,N
1568387435.1,286047000.8,N
1568387436.0,286047000.8,N
1568387455.8,286046999.6,N
1568387475.7,286046999.2,N
1568387495.5,286046999.2,N
1568387515.3,286046998.3,N
1568387535.2,286046999.8,N
1568387555.0,286047002.7,N
1568387555.9,286047002.7,N
1568387575.8,286047003.9,N
1568387595.6,286046999.8,N
1568387615.4,286047000.6,N
1568387635.3,286047000.6,N
1568387655.1,286047000.1,N
1568387675.9,286047002.2,N
1568387695.7,286046999.8,N
1568387715.5,286047002.2,N
1568387735.4,286047001.5,N
1568387755.2,286047001.8,N
1568387775.0,286047002.1,N
1568387776.0,286047002.1,N
1568387795.8,286047001.3,N
1568387815.6,286047002.6,N
1568387835.5,286047000.1,N
1568387855.3,286047004.0,Y
1568387875.1,286047001.9,P
1568387895.9,286047001.7,P
1568387915.7,286047002.3,P
1568387935.6,286047002.3,Y
1568387955.4,286046999.1,P
1568387975.2,286046998.4,N
1568387995.1,286047000.6,N
1568387996.0,286047000.6,N
1568388015.8,286047000.2,N
1568388035.7,286047000.8,N
1568388055.5,286047000.7,N
1568388075.3,286047000.4,N
1568388095.2,286047000.9,N
1568388115.9,286047000.4,N
1568388135.7,286047001.0,N
1568388155.6,286046999.4,N
1568388175.4,286046995.4,Y
1568388195.3,286046996.3,P
1568388215.1,286046995.1,N
1568388216.0,286046995.1,N
1568388235.8,286046995.1,N
1568388255.7,286046996.1,N
1568388275.5,286046995.4,N
1568388295.3,286046999.6,N
1568388315.2,286046997.2,N
1568388335.0,286046999.6,N
1568388335.9,286046999.6,N
1568388355.8,286046999.0,N
1568388375.6,286046996.8,N
1568388395.4,286046999.1,N
1568388415.3,286046998.2,N
1568388435.1,286047000.4,N
1568388455.8,286047001.2,N
1568388475.7,286047000.0,N
1568388495.5,286046999.8,N
1568388515.4,286047002.0,N
1568388535.2,286047000.4,N
1568388555.0,286046998.4,N
1568388555.9,286046998.4,N
1568388575.8,286046999.6,N
1568388595.6,286046999.2,N
1568388615.4,286047001.2,N
1568388635.3,286046999.8,N
1568388655.1,286046998.1,N
1568388675.9,286046998.2,N
1568388695.7,286047001.0,N
1568388715.5,286046996.5,N
1568388735.4,286046997.2,N
1568388755.2,286046996.2,N
1568388775.0,286046995.3,N
1568388776.0,286046995.3,N
1568388795.8,286046996.3,N
1568388815.6,286046996.2,N
1568388835.5,286046997.5,N
1568388855.3,286046995.9,N
1568388875.1,286046994.0,Y
1568388895.9,286046996.3,P
1568388915.7,286046993.4,P
1568388935.6,286046996.3,N
1568388955.4,286046996.0,N
1568388975.2,286046996.1,N
1568388995.1,286046997.7,N
1568388996.0,286046997.7,N
1568389015.8,286046995.8,N
1568389035.6,286046994.6,Y
1568389055.5,286047000.9,P
1568389075.3,286047000.8,N
1568389095.2,286047002.0,N
1568389115.9,286047004.1,N
1568389135.7,286047005.9,N
1568389155.6,286047004.1,N
1568389175.4,286047001.8,N
1568389195.2,286047002.5,N
1568389215.1,286047002.3,N
1568389216.0,286047002.3,N
1568389235.8,286047001.5,N
1568389255.7,286047001.8,N
1568389275.5,286047001.3,N
1568389295.3,286047001.9,N
1568389315.2,286047000.3,N
1568389335.0,286047000.4,N
1568389335.9,286047000.4,N
1568389355.7,286047002.2,N
1568389375.6,286047000.9,N
1568389395.4,286046998.6,N
1568389415.3,286046998.7,N
1568389435.1,286047001.0,N
1568389436.0,286047001.0,N
1568389455.8,286047000.7,N
1568389475.7,286047000.3,N
1568389495.5,286046998.2,N
1568389515.3,286046999.6,N
1568389535.2,286046998.9,N
1568389555.0,286047001.0,N
1568389555.9,286047001.0,N
1568389575.8,286047000.7,N
1568389595.6,286046998.3,N
1568389615.4,286046999.0,N
1568389635.3,286046998.9,N
1568389655.1,286046999.4,N
1568389675.8,286046996.6,N
1568389695.7,286046996.6,N
1568389715.5,286046999.6,N
1568389735.4,286046998.2,N
1568389755.2,286046999.1,N
1568389775.0,286047001.2,N
1568389775.9,286047001.2,N
1568389795.8,286047000.4,N
1568389815.6,286047002.8,N
1568389835.4,286047000.8,N
1568389855.3,286047002.8,N
1568389875.1,286047000.5,N
1568389895.9,286047002.3,N
1568389915.7,286047000.5,N
1568389935.5,286047002.2,N
1568389955.4,286047002.0,N
1568389975.2,286047002.3,N
1568389995.0,286047001.9,N
1568389995.9,286047001.9,N
1568390015.8,286047004.1,N
1568390035.6,286047004.3,N
1568390055.5,286047004.0,N
1568390075.3,286047001.8,N
1568390095.1,286047003.6,N
1568390115.9,286047003.9,N
1568390135.7,286047001.8,N
1568390155.5,286047002.8,N
1568390175.4,286047003.8,N
1568390195.2,286047003.6,N
1568390215.1,286047004.9,N
1568390216.0,286047004.9,N
1568390235.8,286047003.4,N
1568390255.6,286047003.1,N
1568390275.5,286047004.4,N
1568390295.3,286047001.8,N
1568390315.1,286047003.8,N
1568390335.9,286047003.7,N
1568390355.7,286047003.9,Y
1568390375.6,286047002.2,P
1568390395.4,286047002.8,P
